Location: Castelbiague
(43.0361°N, 0.9246°E)
Time: 22:06:32
(UTC+00:00)

USA 215 - Pass Details

Date: 21 October 2021
Orbit: 1099 x 1109 km, 123.0° (Epoch: 20 November)

Event Time Altitude Azimuth Distance (km) Brightness Sun altitude
Exits shadow 17:47:15 - 47° (NE) 3,644 5.5 -8.6°
Reaches altitude 10° 17:49:06 10° 42° (NE) 2,964 5.1 -8.9°
Maximum altitude 17:55:10 42° 335° (NNW) 1,521 4.2 -10.1°
Drops below altitude 10° 18:01:14 10° 267° (W) 2,963 7.1 -11.2°
Sets 18:03:50 0° 260° (W) 3,921 8.3 -11.6°
